Location: Diati
(11.8376°N, 2.5966°E)
Time: 17:26:05
(UTC+00:00)

CSL-04 Debris - Pass Details

Date: 21 September 2020
Orbit: 827 x 848 km, 98.9° (Epoch: 19 October)

Event Time Altitude Azimuth Distance (km) Brightness Sun altitude
Rises 19:00:03 0° 163° (SSE) 3,369 7.1 -18.9°
Reaches altitude 10° 19:02:25 10° 161° (SSE) 2,433 6.4 -19.5°
Maximum altitude 19:07:47 74° 77° (ENE) 862 4.0 -20.8°
Drops below altitude 10° 19:13:08 10° 352° (N) 2,424 6.7 -22.1°
Sets 19:15:29 0° 351° (N) 3,357 7.5 -22.7°
